TimeEST,TemperatureF,Dew PointF,Humidity,Sea Level PressureIn,VisibilityMPH,Wind Direction,Wind SpeedMPH,Gust SpeedMPH,PrecipitationIn,Events,Conditions,WindDirDegrees,DateUTC
12:53 AM,28.9,19.0,67,30.09,10.0,WNW,5.8,-,N/A,,Clear,290,2013-03-05 05:53:00
2:53 AM,27.0,17.1,66,30.09,10.0,Variable,3.5,-,N/A,,Clear,0,2013-03-05 07:53:00
4:53 AM,28.0,17.1,63,30.10,10.0,Calm,Calm,-,N/A,,Clear,0,2013-03-05 09:53:00
5:53 AM,26.1,16.0,66,30.10,10.0,NNE,4.6,-,N/A,,Clear,30,2013-03-05 10:53:00
6:53 AM,27.0,16.0,63,30.11,10.0,NNW,4.6,-,N/A,,Clear,340,2013-03-05 11:53:00
8:53 AM,30.9,18.0,59,30.11,10.0,West,4.6,-,N/A,,Clear,280,2013-03-05 13:53:00
9:53 AM,33.1,18.0,54,30.10,10.0,West,3.5,-,N/A,,Clear,260,2013-03-05 14:53:00
10:53 AM,36.0,16.0,44,30.08,10.0,Calm,Calm,-,N/A,,Clear,0,2013-03-05 15:53:00
11:53 AM,39.0,15.1,38,30.07,10.0,North,5.8,-,N/A,,Clear,350,2013-03-05 16:53:00
12:53 PM,39.0,12.0,33,30.04,10.0,Calm,Calm,-,N/A,,Clear,0,2013-03-05 17:53:00
1:53 PM,43.0,15.1,32,30.00,10.0,Calm,Calm,-,N/A,,Clear,0,2013-03-05 18:53:00
2:53 PM,45.0,10.0,24,29.97,10.0,Calm,Calm,-,N/A,,Clear,0,2013-03-05 19:53:00
3:53 PM,46.0,9.0,22,29.95,10.0,Variable,3.5,-,N/A,,Clear,0,2013-03-05 20:53:00
4:53 PM,46.0,17.1,31,29.95,10.0,East,8.1,-,N/A,,Clear,90,2013-03-05 21:53:00
5:53 PM,42.1,19.9,41,29.95,10.0,East,6.9,-,N/A,,Clear,100,2013-03-05 22:53:00
6:53 PM,39.9,23.0,51,29.94,10.0,East,8.1,-,N/A,,Scattered Clouds,80,2013-03-05 23:53:00
7:53 PM,39.9,25.0,55,29.93,10.0,ENE,9.2,-,N/A,,Overcast,70,2013-03-06 00:53:00
8:53 PM,39.9,24.1,53,29.91,10.0,ESE,10.4,-,N/A,,Overcast,110,2013-03-06 01:53:00
9:53 PM,39.0,25.0,57,29.89,10.0,ESE,10.4,-,N/A,,Overcast,120,2013-03-06 02:53:00
10:53 PM,39.0,25.0,57,29.88,10.0,ESE,9.2,-,N/A,,Overcast,110,2013-03-06 03:53:00
11:53 PM,39.0,26.1,60,29.85,10.0,ESE,10.4,-,N/A,,Overcast,110,2013-03-06 04:53:00